Regional Weather Roundup
Issued by NWS Sterling, VA

Home | Current Version | Previous Version | Graphics & Text | Print | Product List | Glossary On
Versions: 1 2 3 4 5 6 7 8 9 10 11 12 13 14 15 16 17 18 19 20 21 22 23 24 25 26 27
000
ASUS41 KLWX 051110
RWRLWX

REGIONAL WEATHER ROUNDUP
NATIONAL WEATHER SERVICE BALTIMORE MD/WASHINGTON DC
600 AM EST MON DEC 05 2016

Note: "FAIR" indicates few or no clouds below 12,000 feet
with no significant weather and/or obstructions to visibility.
 TC=TEMPERATURE CELSIUS

 * =Non NWS site. Station does not report precipitation (e.g. rain,
    snow, etc.), thunder, or fog.

DCZ001-MDZ009-015-VAZ040>042-051-053>054-051200-
WASHINGTON METRO

CITY           SKY/WX    TMP DP  RH WIND       PRES   REMARKS
WASHINGTON NAT CLOUDY    42  41  96 S8        30.01S
DULLES         CLOUDY    40  37  89 SW8       29.99S
ANDREWS AFB    CLOUDY    40  39  94 SW8       29.99S
FT BELVOIR     CLOUDY    41  39  92 CALM      30.00S
QUANTICO       CLOUDY    42  39  89 SW7       30.02S
COLLEGE PARK*  CLOUDY    41  37  87 SW5       30.00S
LEESBURG*      CLOUDY    41  41 100 MISG      30.00R
MANASSAS*      CLOUDY    39  39 100 CALM      30.00S
GAITHERSBURG*  CLOUDY    39  34  81 SW5       30.03R

$$

MDZ006>007-011-014-051200-
BALTIMORE METRO

CITY           SKY/WX    TMP DP  RH WIND       PRES   REMARKS
BWI AIRPORT    CLOUDY    40  40 100 SW5       30.00S
MD SCIENCE CTR   N/A     42  38  85 MISG      30.02S
MARTIN STATE   CLOUDY    43  43 100 S5        30.02
ANNAPOLIS      CLOUDY    43  40  89 S5        30.00F
FORT MEADE*    CLOUDY    39  37  93 CALM      30.03R

$$

MDZ012-015-019>023-051200-
MARYLAND EASTERN SHORE

CITY           SKY/WX    TMP DP  RH WIND       PRES   REMARKS
OCEAN CITY     LGT RAIN  44  43  96 W3        30.03S FOG
SALISBURY      LGT RAIN  41  41 100 CALM      30.03S FOG
BAY BRIDGE AP* CLOUDY    43  41  93 S7        30.00F
EASTON*        CLOUDY    43  41  93 SW5       30.05S

$$

MDZ017>025-051200-
SOUTHERN MARYLAND

CITY           SKY/WX    TMP DP  RH WIND       PRES   REMARKS
PATUXENT RIVER CLOUDY    42  40  92 S6        30.00F
ST INIGOES     CLOUDY    43  42  97 S5        30.00F
LEONARDTOWN*   CLOUDY    41  39  93 CALM      30.01F

$$

MDZ003>005-051200-
NORTH CENTRAL MARYLAND

CITY           SKY/WX    TMP DP  RH WIND       PRES   REMARKS
FREDERICK*     CLOUDY    39  39 100 S7        30.02R
HAGERSTOWN APT CLOUDY    39  36  89 S6        29.96R
WESTMINSTER*   CLOUDY    37  37 100 S8        29.96S

$$

MDZ501>502-051200-
WESTERN MARYLAND

CITY           SKY/WX    TMP DP  RH WIND       PRES   REMARKS
OAKLAND*       CLOUDY    36  36 100 W8G16     29.92R
CUMBERLAND*    NOT AVBL

$$

VAZ025>031-051200-
SHENANDOAH VALLEY

CITY           SKY/WX    TMP DP  RH WIND       PRES   REMARKS
WINCHESTER*    CLOUDY    36  36 100 CALM      29.96R
FRONT ROYAL*   PTSUNNY   37  36  93 CALM      29.94S
LURAY*         FAIR      39  39 100 SW7       29.95S
NEW MARKET*    FAIR      34  33  95 CALM      29.95S
STAUNTON*      CLOUDY    37  36  94 CALM      29.97S
WAYNESBORO*    FAIR      37  36  96 CALM      29.96R

$$

WVZ021-048>050-054>055-051200-
EASTERN WEST VIRGINIA PANHANDLE

CITY           SKY/WX    TMP DP  RH WIND       PRES   REMARKS
MARTINSBURG    CLOUDY    37  35  92 S5        29.95S
PETERSBURG*    CLOUDY    41  40  95 W5        29.94R

$$

VAZ036>039-050-051200-
CENTRAL FOOTHILLS

CITY           SKY/WX    TMP DP  RH WIND       PRES   REMARKS
CHARLOTTESVILL CLOUDY    40  37  89 S5        29.98R
CULPEPER*      CLOUDY    41  40  96 CALM      30.01R
ORANGE*          N/A     41  41 100 S9        30.01R
GORDONSVILLE*  CLOUDY    39  39  99 SW3       29.99R
WARRENTON*     CLOUDY    41  36  84 SW6       29.99R

$$

VAZ055>057-051200-
NORTH AND CENTRAL PIEDMONT

CITY           SKY/WX    TMP DP  RH WIND       PRES   REMARKS
FREDERICKSBRG* CLOUDY    41  41 100 CALM      30.01R
STAFFORD*      CLOUDY    39  39 100 CALM      30.04S

$$

NCZ024-NYZ072-PAZ021-071-VAZ022-071-051200-
OTHER REGIONAL OBSERVATIONS

CITY           SKY/WX    TMP DP  RH WIND       PRES   REMARKS
NEW YORK CITY  LGT RAIN  39  36  89 CALM      30.04S FOG
PHILADELPHIA   CLOUDY    40  38  93 S10       30.01F FOG
PITTSBURGH     DRIZZLE   43  37  79 W12G20    29.95R
ROANOKE        CLOUDY    38  37  97 N8        29.99F
RICHMOND       CLOUDY    41  39  93 S6        30.00F
RALEIGH        CLOUDY    43  41  93 N5        30.00F

$$

ANZ530>537-051200-
MARINE OBSERVATIONS

STATION/POSITION TIME  TEMP    WIND        PRES
                       AIR SEA DIR/SP/G
                 (UTC) (F)     (DEG/KT/KT) (MB)
THOMAS PT LIGHT  1100   43 48  210/ 15/ 17   N/A
BALT KEY BRIDGE  1048   41     200/  4/  6 1016.0F
COVE POINT       1048   42     210/ 10/ 13 1016.6F
LEWISETTA        1048   42 48  310/  2/  3 1016.5F
SOLOMONS ISLAND  1042   43 50  180/  7/  8   N/A
PINEY POINT      1048          200/  4/  5   N/A

$$





USA.gov is the U.S. government's official web portal to all federal, state and local government web resources and services.